This is the latest recevied weather packets stored in our database for station/object KE2HEH. If no packets are shown the sender has not sent any weather packets the latest 10 day(s).
| Time | Temp. | Humidity | Pressure | Rain* | Wind** | Luminosity | Snow |
|---|---|---|---|---|---|---|---|
| 1777811806 | 8.89° C | 55% | 1012.4 hPa | 0 mm | - | 429 W/m² | - |
| 1777811503 | 8.33° C | 55% | 1012.4 hPa | 0 mm | - | 401 W/m² | - |
| 1777811199 | 8.89° C | 55% | 1012.4 hPa | 0 mm | - | 382 W/m² | - |
| 1777810897 | 8.33° C | 56% | 1012.4 hPa | 0 mm | - | 361 W/m² | - |
| 1777810592 | 8.33° C | 55% | 1012.3 hPa | 0 mm | - | 360 W/m² | - |
| 1777810290 | 8.33° C | 56% | 1012.2 hPa | 0 mm | - | 330 W/m² | - |
| 1777809985 | 8.33° C | 56% | 1012.2 hPa | 0 mm | - | 271 W/m² | - |
| 1777809684 | 8.33° C | 57% | 1012.2 hPa | 0 mm | - | 326 W/m² | - |
| 1777809381 | 8.33° C | 57% | 1012.1 hPa | 0 mm | - | 182 W/m² | - |
| 1777809078 | 7.78° C | 57% | 1012.1 hPa | 0 mm | - | 152 W/m² | - |
| 1777808776 | 7.78° C | 57% | 1012.3 hPa | 0 mm | - | 115 W/m² | - |
| 1777808472 | 8.33° C | 57% | 1012.2 hPa | 0 mm | - | 89 W/m² | - |
| 1777808170 | 8.33° C | 56% | 1012.2 hPa | 0 mm | - | 77 W/m² | - |
| 1777807868 | 8.33° C | 56% | 1012.3 hPa | 0 mm | - | 67 W/m² | - |
| 1777807566 | 8.33° C | 57% | 1012.2 hPa | 0 mm | - | 98 W/m² | - |
| 1777807263 | 8.33° C | 58% | 1012.2 hPa | 0 mm | - | 110 W/m² | - |
| 1777806959 | 8.33° C | 58% | 1012 hPa | 0 mm | - | 105 W/m² | - |
| 1777806655 | 8.33° C | 60% | 1012 hPa | 0 mm | - | 91 W/m² | - |
| 1777806351 | 7.78° C | 61% | 1011.9 hPa | 0 mm | - | 75 W/m² | - |
| 1777806048 | 7.78° C | 62% | 1011.8 hPa | 0 mm | - | 69 W/m² | - |
| 1777805744 | 7.78° C | 62% | 1011.7 hPa | 0 mm | - | 61 W/m² | - |
| 1777805443 | 7.78° C | 62% | 1011.8 hPa | 0 mm | - | 52 W/m² | - |
| 1777805141 | 7.78° C | 62% | 1011.6 hPa | 0 mm | - | 47 W/m² | - |
| 1777804838 | 7.78° C | 62% | 1011.6 hPa | 0 mm | - | 36 W/m² | - |
| 1777804536 | 7.78° C | 61% | 1011.4 hPa | 0 mm | - | 28 W/m² | - |
* Rain latest hour (hover to see other rain measurements)
** Current wind speed in m/s (hover to see current wind gust speed)